TimeCST,TemperatureF,Dew PointF,Humidity,Sea Level PressureIn,VisibilityMPH,Wind Direction,Wind SpeedMPH,Gust SpeedMPH,PrecipitationIn,Events,Conditions,WindDirDegrees,DateUTC
3:00 AM,-9999,-9999,N/A,-9999,6.2,ESE,11.5,-,N/A,,Mostly Cloudy,110,2012-07-12 09:00:00
5:00 AM,80.6,77.0,89,29.89,6.2,East,2.3,-,N/A,,Mostly Cloudy,100,2012-07-12 11:00:00
6:00 AM,78.8,77.0,94,29.92,6.2,East,3.5,-,N/A,,Mostly Cloudy,100,2012-07-12 12:00:00
7:00 AM,82.4,77.0,84,29.92,6.2,East,4.6,-,N/A,,Mostly Cloudy,90,2012-07-12 13:00:00
8:00 AM,84.2,77.0,79,29.92,6.2,East,6.9,-,N/A,,Mostly Cloudy,100,2012-07-12 14:00:00
9:00 AM,86.0,77.0,74,29.94,6.2,ESE,8.1,-,N/A,,Mostly Cloudy,110,2012-07-12 15:00:00
10:00 AM,87.8,77.0,70,29.95,6.2,East,10.4,-,N/A,,Mostly Cloudy,100,2012-07-12 16:00:00
11:00 AM,87.8,77.0,70,29.95,6.2,East,12.7,-,N/A,,Mostly Cloudy,100,2012-07-12 17:00:00
12:00 PM,87.8,77.0,70,29.94,6.2,East,10.4,-,N/A,,Scattered Clouds,90,2012-07-12 18:00:00
1:00 PM,87.8,77.0,70,29.93,6.2,East,12.7,-,N/A,,Scattered Clouds,80,2012-07-12 19:00:00
2:00 PM,87.8,77.0,70,29.91,6.2,East,10.4,-,N/A,,Scattered Clouds,90,2012-07-12 20:00:00
3:00 PM,87,78,68,29.90,12,East,10.4,,,,Partly Cloudy,80,2012-07-12 21:00:00
3:00 PM,87.8,78.8,75,29.90,-9999.0,East,10.4,-,N/A,,Scattered Clouds,80,2012-07-12 21:00:00
4:00 PM,87.8,77.0,70,29.89,6.2,East,11.5,-,N/A,,Scattered Clouds,90,2012-07-12 22:00:00
5:00 PM,86.0,77.0,74,29.89,6.2,East,10.4,-,N/A,,Partly Cloudy,90,2012-07-12 23:00:00
6:00 PM,85,77,70,29.91,12,East,8.1,,,,,90,2012-07-13 00:00:00
6:00 PM,84.2,77.0,79,29.90,6.2,East,8.1,-,N/A,,Scattered Clouds,90,2012-07-13 00:00:00
7:00 PM,84.2,77.0,79,29.92,6.2,East,9.2,-,N/A,,Scattered Clouds,90,2012-07-13 01:00:00
8:00 PM,84.2,77.0,79,29.94,6.2,East,6.9,-,N/A,,Scattered Clouds,90,2012-07-13 02:00:00
9:00 PM,83,77,78,29.95,12,East,8.1,,,,Partly Cloudy,100,2012-07-13 03:00:00
9:00 PM,84.2,77.0,79,29.95,6.2,East,8.1,-,N/A,,Scattered Clouds,100,2012-07-13 03:00:00